K7CTD Weather Reports


time (UTC)temp
C
wind
direction
speed
KPH
gust
KPH
rain 1hr
cm
rain 24hr
cm
rain mn
cm
humidity
%
barometer
mb
20260503010002 20 122 0.0 0.0 0.00 0.00 0.00 28 1014.8
20260503004501 21 122 0.0 0.0 0.00 0.00 0.00 34 1015.0
20260503003059 21 122 0.0 0.0 0.00 0.00 0.00 38 1015.1
20260503001603 21 122 0.0 1.6 0.00 0.00 0.00 31 1015.1
20260503000108 21 128 0.0 3.2 0.00 0.00 0.00 24 1015.2
20260502234614 22 100 0.0 1.6 0.00 0.00 0.00 21 1015.3
20260502233108 22 53 0.0 3.2 0.00 0.00 0.00 23 1015.4
20260502231605 22 144 0.0 1.6 0.00 0.00 0.00 24 1015.6
20260502230052 21 217 0.0 6.4 0.00 0.00 0.00 24 1015.7
20260502224550 22 243 0.0 9.7 0.00 0.00 0.00 26 1016.0
20260502223052 22 146 1.6 6.4 0.00 0.00 0.00 27 1015.9
20260502221600 22 258 0.0 6.4 0.00 0.00 0.00 28 1016.1
20260502220047 22 220 3.2 12.9 0.00 0.00 0.00 26 1016.3
20260502214545 22 71 3.2 9.7 0.00 0.00 0.00 25 1016.6
20260502213051 21 272 1.6 6.4 0.00 0.00 0.00 27 1016.8
20260502211546 21 132 0.0 8.0 0.00 0.00 0.00 24 1016.9
20260502210044 21 259 1.6 11.3 0.00 0.00 0.00 25 1017.2
20260502204546 21 232 4.8 12.9 0.00 0.00 0.00 29 1017.3
20260502203034 21 104 0.0 6.4 0.00 0.00 0.00 29 1017.4
20260502201534 21 274 3.2 8.0 0.00 0.00 0.00 29 1017.5
20260502200032 21 141 0.0 11.3 0.00 0.00 0.00 29 1017.8
20260502194530 21 230 1.6 12.9 0.00 0.00 0.00 31 1017.9
20260502193027 20 143 0.0 14.5 0.00 0.00 0.00 28 1018.1
20260502191525 20 263 3.2 12.9 0.00 0.00 0.00 31 1018.2
20260502190022 20 207 3.2 17.7 0.00 0.00 0.00 30 1018.4
20260502184522 20 250 0.0 16.1 0.00 0.00 0.00 32 1018.5
20260502183016 19 239 1.6 9.7 0.00 0.00 0.00 36 1018.8
20260502181512 18 264 0.0 12.9 0.00 0.00 0.00 33 1019.1
20260502163054 14 225 1.6 8.0 0.00 0.00 0.00 60 1020.0
20260502161551 13 186 0.0 3.2 0.00 0.00 0.00 61 1020.3
20260502151528 8 204 0.0 1.6 0.00 0.00 0.00 74 1020.6
20260502123014 3 91 0.0 0.0 0.00 0.00 0.00 86 1020.7
20260502121508 2 92 0.0 0.0 0.00 0.00 0.00 86 1020.6
20260502114505 2 91 0.0 0.0 0.00 0.00 0.00 87 1020.7
20260502113004 2 91 0.0 0.0 0.00 0.00 0.00 86 1020.7
20260502111501 2 91 0.0 0.0 0.00 0.00 0.00 86 1020.5
20260502110100 3 94 0.0 0.0 0.00 0.00 0.00 86 1020.6
20260502104559 3 94 0.0 0.0 0.00 0.00 0.00 85 1020.7
20260502103103 3 94 0.0 0.0 0.00 0.00 0.00 85 1020.7
20260502101556 3 56 0.0 0.0 0.00 0.00 0.00 84 1020.7
20260502100115 3 56 0.0 0.0 0.00 0.00 0.00 84 1020.7
20260502070029 5 56 0.0 0.0 0.00 0.00 0.00 78 1020.9
20260502064526 5 56 0.0 0.0 0.00 0.00 0.00 77 1020.9
20260502063025 5 56 0.0 0.0 0.00 0.00 0.00 76 1020.8
20260502061523 5 56 0.0 0.0 0.00 0.00 0.00 76 1020.7
20260502060019 6 56 0.0 0.0 0.00 0.00 0.00 76 1020.8
20260502054521 6 56 0.0 0.0 0.00 0.00 0.00 74 1020.8
20260502053017 6 56 0.0 0.0 0.00 0.00 0.00 73 1020.9
20260502051532 6 56 0.0 0.0 0.00 0.00 0.00 70 1020.9
20260502050017 7 56 0.0 0.0 0.00 0.00 0.00 71 1020.8
20260502044517 7 56 0.0 0.0 0.00 0.00 0.00 67 1020.8
20260502043016 7 56 0.0 0.0 0.00 0.00 0.00 67 1020.8
20260502041516 8 56 0.0 0.0 0.00 0.00 0.00 66 1020.5
20260502040015 8 56 0.0 0.0 0.00 0.00 0.00 61 1020.4
20260502034520 9 56 0.0 0.0 0.00 0.00 0.00 63 1020.0
20260502033024 10 56 0.0 1.6 0.00 0.00 0.00 57 1019.7
20260502031514 10 56 0.0 1.6 0.00 0.00 0.00 53 1019.5
20260502030014 11 55 0.0 1.6 0.00 0.00 0.00 53 1019.4
20260502024513 11 56 0.0 1.6 0.00 0.00 0.00 49 1019.3
20260502023014 12 56 0.0 3.2 0.00 0.00 0.00 51 1019.3
20260502021511 12 89 0.0 0.0 0.00 0.00 0.00 50 1019.2
20260502020011 13 89 0.0 1.6 0.00 0.00 0.00 47 1019.3
20260502014514 14 89 0.0 1.6 0.00 0.00 0.00 45 1019.3
20260502013008 15 89 0.0 1.6 0.00 0.00 0.00 44 1019.3
20260502011508 16 114 0.0 1.6 0.00 0.00 0.00 40 1019.4